map of PMW home
Great Circle Mapper logo
PMW - Airport
Location
City:  Palmas, Paraná, Brazil
Name:Tocantins
ICAO:SBPJ
IATA:PMW

Details
Type:Airport (Aerodrome, Airfield)
Use:Public/Civil
Latitude:10°17'29"S (-10.291524)
Longitude:48°21'25"W (-48.356971)
Datum:WGS 1984
Elevation:774 ft (236 m)
Variation:21.14°W (WMM2015 magnetic declination)
-0.07° annual change
Runways:1
Longest:8185 × 148 ft (2495 × 45 m), paved

Time
Time Zone:UTC-3 (DST-2)
Local Time:

Weather
METAR:SBPJ 010300Z 11003KT CAVOK 25/20 Q1011
TAF:SBPJ 312200Z 0100/0112 10005KT CAVOK TN23/0107Z TX27/0111Z
RMK PDB

Related Locations
Nearby:
Farthest:ROR: 12157 mi / 19565 km
Babelthuap Island [Babelthuap/Koror Airport], PW

Find:

   beyond  
but within

Other Information
Maps:
NOTAMs:
Links:
Sources:

  
flag of Brazil
flag of Paraná
  

Sectional Chart

Flight Planning
at skyvector.com

Satellite Image

Google Maps Satellite view

 

Copyright © 2004-2016 Karl L. Swartz. All rights reserved.
The Great Circle Mapper name and logo are trademarks of the Great Circle Mapper.
All other trademarks mentioned herein belong to their respective owners.
Please see credits for attibutions and further copyright information.

  Follow gcmap on Facebook Follow gcmap on Twitter Follow gcmap on Google+ GCmap on LinkedIn

hCard Microformat

Geo Microformat